Fort Myers, FL

6:05 PM EDT on July 20, 2017 (GMT -0400)
Page

Weather History for KFMY - July, 2014

Change the Weather History Date:

Wednesday, July 16, 2014

  Actual Average Record
Temperature  
Mean Temperature 82 °F 83 °F  
Max Temperature 89 °F 92 °F 100 °F (1998)
Min Temperature 74 °F 75 °F 69 °F (1928)
Degree Days  
Heating Degree Days 0 0  
Month to date heating degree days 0 0  
Since 1 June heating degree days 0 0  
Since 1 July heating degree days 0 0  
Cooling Degree Days 17 18  
Month to date cooling degree days 290 288  
Year to date cooling degree days 2011 1879  
Since 1 June cooling degree days 820 813  
Growing Degree Days 30 (Base 50)    
Moisture  
Dew Point 74 °F    
Average Humidity 80    
Maximum Humidity 94    
Minimum Humidity 59    
Precipitation  
Precipitation 0.39 in 0.27 in 1.58 in (1932)
Month to date precipitation 5.68 4.72  
Year to date precipitation 19.50 26.61  
Sea Level Pressure  
Sea Level Pressure 29.98 in    
Wind  
Wind Speed 6 mph (West)    
Max Wind Speed 26 mph    
Max Gust Speed 35 mph    
Visibility 9 miles    
Events Fog , Rain , Thunderstorm    
T = Trace of Precipitation, MM = Missing Value Source: NWS Daily Summary

Daily Weather History Graph

Daily Weather History Graph

Search for Another Location

Airport or City:

Trip Planner

Search our weather history database for the weather conditions in past years. The results will help you decide how hot, cold, wet, or windy it might be!

Date:

Astronomy

Jul. 16, 2014 Rise Set
Actual Time 6:44 AM EDT 8:22 PM EDT
Civil Twilight 6:18 AM EDT 8:48 PM EDT
Nautical Twilight 5:47 AM EDT 9:18 PM EDT
Astronomical Twilight 5:15 AM EDT 9:51 PM EDT
Moon 11:40 PM EDT (7/16) 11:15 AM EDT (7/16)
Length of Visible Light 14h 29m
Length of Day
13h 38m
Waning Gibbous, 76% of the Moon is Illuminated
Jul 16
Waning Gibbous
Jul 18
Last Quarter
Jul 26
New
Aug 3
First Quarter
Aug 10
Full

Hourly Weather History & Observations

Time (EDT) Temp. Heat Index Dew Point Humidity Pressure Visibility Wind Dir Wind Speed Gust Speed Precip Events Conditions
12:53 AM 80.1 °F 83.6 °F 71.1 °F 74% 30.00 in 10.0 mi Calm Calm - N/A   Clear
1:53 AM 75.9 °F - 73.9 °F 94% 29.99 in 10.0 mi Calm Calm - N/A   Clear
2:53 AM 75.9 °F - 73.9 °F 94% 29.98 in 10.0 mi ESE 3.5 mph - N/A   Partly Cloudy
3:53 AM 75.0 °F - 73.0 °F 94% 29.96 in 10.0 mi ESE 3.5 mph - N/A   Clear
4:53 AM 75.9 °F - 73.9 °F 94% 29.96 in 10.0 mi Calm Calm - N/A   Clear
5:53 AM 77.0 °F - 75.0 °F 94% 29.96 in 10.0 mi SSE 4.6 mph - N/A   Clear
6:53 AM 78.1 °F - 75.0 °F 90% 29.97 in 5.0 mi Variable 3.5 mph - 0.00 in Rain Light Rain
7:53 AM 79.0 °F - 73.9 °F 84% 29.98 in 10.0 mi South 3.5 mph - 0.02 in   Mostly Cloudy
8:53 AM 84.0 °F 92.6 °F 75.9 °F 76% 29.98 in 10.0 mi SSW 4.6 mph - N/A   Partly Cloudy
9:53 AM 87.1 °F 96.3 °F 75.0 °F 67% 29.99 in 10.0 mi WSW 12.7 mph - N/A   Scattered Clouds
10:31 AM 86.0 °F 95.1 °F 75.0 °F 70% 29.98 in 10.0 mi West 12.7 mph - N/A   Mostly Cloudy
10:41 AM 86.0 °F 95.1 °F 75.0 °F 70% 29.98 in 10.0 mi West 13.8 mph - N/A   Scattered Clouds
10:53 AM 87.1 °F 96.3 °F 75.0 °F 67% 29.99 in 10.0 mi WSW 13.8 mph - N/A   Partly Cloudy
11:15 AM 87.1 °F 96.3 °F 75.0 °F 67% 29.98 in 10.0 mi WSW 13.8 mph 21.9 mph N/A Thunderstorm Partly Cloudy
11:30 AM 87.1 °F 95.4 °F 73.9 °F 65% 29.97 in 10.0 mi WNW 15.0 mph - N/A   Partly Cloudy
11:53 AM 82.9 °F 88.0 °F 72.0 °F 69% 29.99 in 10.0 mi West 9.2 mph - 0.00 in   Scattered Clouds
12:53 PM 87.1 °F 96.3 °F 75.0 °F 67% 29.99 in 10.0 mi West 13.8 mph - N/A   Clear
1:30 PM 84.0 °F 92.6 °F 75.9 °F 76% 29.98 in 10.0 mi WSW 12.7 mph - 0.01 in Rain Light Rain
1:38 PM 84.9 °F 93.3 °F 75.0 °F 72% 29.98 in 10.0 mi West 11.5 mph - 0.01 in   Mostly Cloudy
1:53 PM 86.0 °F 96.0 °F 75.9 °F 72% 29.99 in 10.0 mi West 12.7 mph - 0.01 in   Clear
2:53 PM 86.0 °F 95.1 °F 75.0 °F 70% 29.99 in 10.0 mi WNW 11.5 mph - N/A   Scattered Clouds
3:15 PM 88.0 °F 95.6 °F 73.0 °F 61% 29.97 in 10.0 mi West 15.0 mph - N/A Thunderstorm Scattered Clouds
3:30 PM 88.0 °F 96.5 °F 73.9 °F 63% 29.97 in 10.0 mi WNW 12.7 mph - N/A   Scattered Clouds
3:53 PM 88.0 °F 93.8 °F 71.1 °F 57% 29.97 in 10.0 mi WNW 12.7 mph - N/A   Partly Cloudy
4:29 PM 86.0 °F 95.1 °F 75.0 °F 70% 29.97 in 10.0 mi NNW 15.0 mph - N/A Thunderstorm Thunderstorm
4:53 PM 84.9 °F 93.3 °F 75.0 °F 72% 29.98 in 10.0 mi North 9.2 mph - N/A Thunderstorm Clear
5:10 PM 84.9 °F 92.1 °F 73.9 °F 69% 29.96 in 10.0 mi NNW 9.2 mph - N/A   Clear
5:19 PM 84.0 °F 91.2 °F 73.9 °F 72% 29.97 in 10.0 mi NNW 5.8 mph - N/A Thunderstorm Partly Cloudy
5:33 PM 82.9 °F 88.8 °F 73.0 °F 72% 29.97 in 10.0 mi NNW 8.1 mph - N/A Thunderstorm Thunderstorm
5:45 PM 79.0 °F - 73.0 °F 82% 29.99 in 1.8 mi NNW 21.9 mph 34.5 mph 0.00 in Rain , Thunderstorm Light Rain
5:50 PM 75.2 °F - 73.4 °F 94% 29.98 in 0.5 mi North 13.8 mph 34.5 mph 0.21 in Fog , Rain , Thunderstorm Heavy Thunderstorms and Rain
5:53 PM 73.9 °F - 72.0 °F 93% 29.99 in 0.5 mi North 9.2 mph - 0.31 in Fog , Rain , Thunderstorm Heavy Thunderstorms and Rain
6:00 PM 75.0 °F - 73.0 °F 94% 29.99 in 2.0 mi North 6.9 mph - 0.04 in Rain , Thunderstorm Light Thunderstorms and Rain
6:08 PM 75.0 °F - 72.0 °F 90% 29.99 in 9.0 mi Calm Calm - 0.04 in Rain , Thunderstorm Light Thunderstorms and Rain
6:19 PM 75.0 °F - 73.0 °F 94% 29.99 in 10.0 mi South 5.8 mph - 0.04 in Thunderstorm Mostly Cloudy
6:35 PM 75.0 °F - 73.0 °F 94% 29.98 in 5.0 mi South 5.8 mph - 0.05 in Rain Rain
6:53 PM 75.0 °F - 73.0 °F 94% 29.98 in 10.0 mi South 4.6 mph - 0.05 in   Partly Cloudy
7:53 PM 75.9 °F - 73.9 °F 94% 29.96 in 10.0 mi South 5.8 mph - N/A   Clear
8:53 PM 75.9 °F - 73.0 °F 91% 29.97 in 10.0 mi SSE 4.6 mph - N/A   Clear
9:53 PM 75.9 °F - 73.9 °F 94% 29.99 in 10.0 mi South 4.6 mph - N/A   Clear
10:53 PM 77.0 °F - 73.9 °F 90% 29.99 in 10.0 mi South 4.6 mph - N/A   Clear
11:53 PM 75.9 °F - 73.9 °F 94% 30.00 in 10.0 mi Calm Calm - N/A   Clear